SBI5014 USSS-UNNT

Flight info

Callsign SBI5014
Flight time 1h 42m
Altitude 35000
Route N0460F350 ANATU P135 GIBUL P983 TINRI T448 RUBOR A300 ML R814 SZ W1 GOLIM
Aircraft B738/M-VGDW/C

Departure

Time 2026-05-05 16:15
Airport Koltsovo Airport (USSS)

Arrival

Time 2026-05-05 17:57
Airport Novosibirsk Tolmachevo Airport (UNNT)
Time Latitude Longitude Altitude Speed Heading
2026-05-05 16:02 56.74941 60.80497 780 ft 0 kts 359°
2026-05-05 16:10 56.74924 60.80498 779 ft 4 kts
2026-05-05 16:10 56.74897 60.80498 779 ft 4 kts 359°
2026-05-05 16:10 56.74870 60.80498 779 ft 4 kts
2026-05-05 16:11 56.74857 60.80494 780 ft 2 kts 55°
2026-05-05 16:11 56.74853 60.80446 780 ft 0 kts 91°
2026-05-05 16:13 56.74663 60.80779 779 ft 18 kts 94°
2026-05-05 16:13 56.74659 60.81045 779 ft 24 kts 90°
2026-05-05 16:13 56.74660 60.81374 779 ft 28 kts 89°
2026-05-05 16:14 56.74661 60.82089 779 ft 22 kts 95°
2026-05-05 16:14 56.74475 60.82087 781 ft 24 kts 261°
2026-05-05 16:15 56.74468 60.79468 812 ft 175 kts 269°
2026-05-05 16:15 56.74508 60.74984 3051 ft 167 kts 271°
2026-05-05 16:16 56.74582 60.70406 4473 ft 188 kts 273°
2026-05-05 16:16 56.74729 60.65577 5851 ft 193 kts 274°
2026-05-05 16:17 56.74444 60.60733 7062 ft 200 kts 239°
2026-05-05 16:17 56.73428 60.58975 7584 ft 212 kts 212°
2026-05-05 16:18 56.70221 60.59246 7962 ft 270 kts 149°
2026-05-05 16:18 56.68898 60.61759 8494 ft 284 kts 118°
2026-05-05 16:18 56.69161 60.68512 10376 ft 270 kts 53°
2026-05-05 16:19 56.70307 60.71147 11380 ft 264 kts 46°
2026-05-05 16:19 56.71593 60.73639 11831 ft 282 kts 44°
2026-05-05 16:19 56.74578 60.79202 12238 ft 331 kts 44°
2026-05-05 16:20 56.77986 60.85659 12593 ft 375 kts 45°
2026-05-05 16:20 56.81703 60.92819 13310 ft 401 kts 45°
2026-05-05 16:21 56.85546 61.00278 14602 ft 406 kts 45°
2026-05-05 16:22 56.91399 61.11671 16405 ft 415 kts 45°
2026-05-05 16:22 56.94910 61.20164 17474 ft 426 kts 62°
2026-05-05 16:23 56.97253 61.30267 18504 ft 434 kts 66°
2026-05-05 16:23 56.98428 61.35373 18976 ft 437 kts 65°
2026-05-05 16:23 57.00838 61.45673 19925 ft 442 kts 65°
2026-05-05 16:24 57.02062 61.50877 20373 ft 445 kts 65°
2026-05-05 16:24 57.03296 61.56126 20797 ft 449 kts 65°
2026-05-05 16:24 57.05776 61.66719 21652 ft 454 kts 65°
2026-05-05 16:25 57.07020 61.72057 22076 ft 457 kts 65°
2026-05-05 16:25 57.09531 61.82876 22881 ft 462 kts 65°
2026-05-05 16:25 57.10791 61.88316 23278 ft 464 kts 65°
2026-05-05 16:26 57.13329 61.99346 23940 ft 470 kts 66°
2026-05-05 16:26 57.15348 62.10851 24552 ft 476 kts 73°
2026-05-05 16:27 57.16215 62.16735 24832 ft 478 kts 73°
2026-05-05 16:27 57.17084 62.22671 25096 ft 481 kts 73°
2026-05-05 16:27 57.17968 62.28639 25379 ft 483 kts 73°
2026-05-05 16:27 57.18863 62.34603 25660 ft 485 kts 72°
2026-05-05 16:28 57.19763 62.40527 25925 ft 487 kts 72°
2026-05-05 16:28 57.20683 62.46558 26183 ft 489 kts 72°
2026-05-05 16:28 57.21603 62.52589 26474 ft 490 kts 72°
2026-05-05 16:28 57.22537 62.58726 26840 ft 489 kts 72°
2026-05-05 16:29 57.23437 62.64669 27201 ft 488 kts 72°
2026-05-05 16:29 57.24350 62.70717 27532 ft 489 kts 72°
2026-05-05 16:29 57.25257 62.76750 27844 ft 489 kts 72°
2026-05-05 16:29 57.26164 62.82811 28224 ft 488 kts 73°
2026-05-05 16:30 57.27063 62.88846 28562 ft 489 kts 73°
2026-05-05 16:30 57.27964 62.94913 28876 ft 489 kts 73°
2026-05-05 16:30 57.28862 63.00984 29236 ft 489 kts 73°
2026-05-05 16:30 57.29754 63.07033 29594 ft 488 kts 73°
2026-05-05 16:31 57.30645 63.13101 29934 ft 489 kts 73°
2026-05-05 16:31 57.31532 63.19165 30178 ft 490 kts 73°
2026-05-05 16:31 57.32420 63.25254 30481 ft 489 kts 73°
2026-05-05 16:31 57.33303 63.31336 30796 ft 488 kts 73°
2026-05-05 16:32 57.34179 63.37392 31096 ft 488 kts 73°
2026-05-05 16:32 57.35056 63.43476 31345 ft 489 kts 73°
2026-05-05 16:32 57.35928 63.49546 31620 ft 489 kts 73°
2026-05-05 16:32 57.36800 63.55631 31918 ft 488 kts 73°
2026-05-05 16:33 57.37668 63.61714 32204 ft 488 kts 73°
2026-05-05 16:33 57.38514 63.67797 32430 ft 489 kts 76°
2026-05-05 16:33 57.38989 63.74062 32670 ft 492 kts 86°
2026-05-05 16:33 57.38917 63.80408 32969 ft 492 kts 95°
2026-05-05 16:34 57.38347 63.86664 33229 ft 493 kts 104°
2026-05-05 16:34 57.37438 63.92784 33454 ft 494 kts 105°
2026-05-05 16:34 57.36508 63.98925 33687 ft 495 kts 105°
2026-05-05 16:34 57.35594 64.05048 33954 ft 494 kts 105°
2026-05-05 16:35 57.34697 64.11190 34197 ft 493 kts 105°
2026-05-05 16:35 57.33812 64.17334 34408 ft 493 kts 105°
2026-05-05 16:35 57.32934 64.23462 34601 ft 494 kts 105°
2026-05-05 16:35 57.32052 64.29614 34796 ft 494 kts 105°
2026-05-05 16:36 57.31166 64.35771 34911 ft 496 kts 105°
2026-05-05 16:36 57.30274 64.41937 34908 ft 498 kts 105°
2026-05-05 16:36 57.28486 64.54183 34916 ft 496 kts 106°
2026-05-05 16:37 57.26669 64.66470 34917 ft 495 kts 106°
2026-05-05 16:37 57.24849 64.78707 34916 ft 494 kts 106°
2026-05-05 16:38 57.23021 64.90928 34918 ft 494 kts 107°
2026-05-05 16:38 57.21181 65.03150 34914 ft 495 kts 107°
2026-05-05 16:39 57.19324 65.15406 34913 ft 496 kts 107°
2026-05-05 16:39 57.17759 65.25664 34913 ft 497 kts 107°
2026-05-05 16:40 57.16273 65.38150 34920 ft 500 kts 97°
2026-05-05 16:40 57.15560 65.50818 34913 ft 501 kts 96°
2026-05-05 16:41 57.14808 65.63603 34914 ft 503 kts 97°
2026-05-05 16:41 57.13982 65.76399 34921 ft 504 kts 98°
2026-05-05 16:42 57.13125 65.89212 34924 ft 505 kts 98°
2026-05-05 16:42 57.12260 66.02036 34930 ft 505 kts 98°
2026-05-05 16:43 57.11385 66.14843 34930 ft 506 kts 98°
2026-05-05 16:43 57.10489 66.27671 34932 ft 506 kts 98°
2026-05-05 16:44 57.09581 66.40505 34930 ft 506 kts 98°
2026-05-05 16:44 57.08662 66.53366 34933 ft 507 kts 98°
2026-05-05 16:45 57.07731 66.66214 34932 ft 508 kts 99°
2026-05-05 16:45 57.06787 66.79071 34933 ft 508 kts 99°
2026-05-05 16:46 57.05828 66.91941 34933 ft 509 kts 99°
2026-05-05 16:46 57.04767 67.04817 34937 ft 509 kts 101°
2026-05-05 16:47 57.03635 67.17665 34932 ft 510 kts 101°
2026-05-05 16:47 57.02496 67.30526 34939 ft 511 kts 101°
2026-05-05 16:48 57.01357 67.43403 34935 ft 512 kts 101°
2026-05-05 16:48 57.00216 67.56215 34891 ft 508 kts 99°
2026-05-05 16:49 56.99652 67.62493 34915 ft 493 kts 100°
2026-05-05 16:49 56.99096 67.68658 34930 ft 487 kts 100°
2026-05-05 16:49 56.97978 67.80899 34942 ft 487 kts 100°
2026-05-05 16:50 56.96846 67.93163 34941 ft 489 kts 100°
2026-05-05 16:50 56.95695 68.05485 34939 ft 491 kts 100°
2026-05-05 16:51 56.94529 68.17833 34937 ft 493 kts 101°
2026-05-05 16:51 56.93347 68.30221 34934 ft 495 kts 101°
2026-05-05 16:52 56.92149 68.42635 34930 ft 496 kts 101°
2026-05-05 16:52 56.90935 68.55084 34925 ft 497 kts 101°
2026-05-05 16:53 56.89709 68.67521 34925 ft 497 kts 101°
2026-05-05 16:53 56.88469 68.79962 34921 ft 498 kts 101°
2026-05-05 16:54 56.87215 68.92409 34921 ft 498 kts 102°
2026-05-05 16:54 56.85950 69.04844 34914 ft 498 kts 102°
2026-05-05 16:55 56.84672 69.17273 34912 ft 498 kts 102°
2026-05-05 16:55 56.83379 69.29716 34910 ft 498 kts 102°
2026-05-05 16:56 56.82076 69.42133 34910 ft 498 kts 102°
2026-05-05 16:56 56.80760 69.54546 34903 ft 498 kts 103°
2026-05-05 16:57 56.79431 69.66953 34900 ft 499 kts 103°
2026-05-05 16:57 56.78088 69.79377 34897 ft 499 kts 103°
2026-05-05 16:58 56.76743 69.91697 34895 ft 499 kts 103°
2026-05-05 16:58 56.75377 70.04099 34885 ft 499 kts 103°
2026-05-05 16:59 56.74000 70.16503 34885 ft 500 kts 104°
2026-05-05 16:59 56.72583 70.28897 34883 ft 500 kts 104°
2026-05-05 17:00 56.71067 70.41274 34878 ft 500 kts 105°
2026-05-05 17:00 56.69529 70.53624 34868 ft 501 kts 105°
2026-05-05 17:01 56.67992 70.65978 34862 ft 501 kts 105°
2026-05-05 17:01 56.66449 70.78337 34869 ft 502 kts 105°
2026-05-05 17:02 56.64891 70.90722 34853 ft 502 kts 106°
2026-05-05 17:02 56.63322 71.03088 34852 ft 503 kts 106°
2026-05-05 17:03 56.61739 71.15449 34846 ft 503 kts 106°
2026-05-05 17:03 56.60142 71.27806 34847 ft 503 kts 107°
2026-05-05 17:04 56.58530 71.40177 34841 ft 503 kts 107°
2026-05-05 17:04 56.56908 71.52523 34836 ft 503 kts 107°
2026-05-05 17:05 56.55281 71.64806 34839 ft 504 kts 107°
2026-05-05 17:05 56.53622 71.77227 34829 ft 504 kts 107°
2026-05-05 17:06 56.51959 71.89570 34823 ft 504 kts 108°
2026-05-05 17:06 56.50295 72.01820 34824 ft 505 kts 108°
2026-05-05 17:07 56.48610 72.14132 34820 ft 505 kts 108°
2026-05-05 17:07 56.46910 72.26449 34819 ft 505 kts 108°
2026-05-05 17:08 56.45197 72.38755 34817 ft 505 kts 108°
2026-05-05 17:08 56.43470 72.51069 34809 ft 505 kts 108°
2026-05-05 17:09 56.41734 72.63350 34812 ft 505 kts 109°
2026-05-05 17:09 56.39986 72.75616 34814 ft 505 kts 109°
2026-05-05 17:10 56.38227 72.87868 34817 ft 504 kts 109°
2026-05-05 17:10 56.36453 73.00127 34818 ft 504 kts 109°
2026-05-05 17:11 56.34670 73.12351 34816 ft 504 kts 109°
2026-05-05 17:11 56.32876 73.24559 34815 ft 504 kts 109°
2026-05-05 17:12 56.31071 73.36750 34815 ft 504 kts 109°
2026-05-05 17:12 56.29254 73.48936 34816 ft 504 kts 109°
2026-05-05 17:13 56.27426 73.61099 34819 ft 504 kts 109°
2026-05-05 17:13 56.25585 73.73267 34827 ft 503 kts 110°
2026-05-05 17:14 56.23738 73.85400 34820 ft 503 kts 110°
2026-05-05 17:14 56.21854 73.97504 34827 ft 502 kts 111°
2026-05-05 17:15 56.19737 74.09439 34841 ft 501 kts 113°
2026-05-05 17:15 56.17555 74.21260 34822 ft 502 kts 113°
2026-05-05 17:16 56.15363 74.33232 34834 ft 502 kts 112°
2026-05-05 17:16 56.13199 74.45135 34836 ft 502 kts 112°
2026-05-05 17:17 56.11031 74.57031 34847 ft 502 kts 112°
2026-05-05 17:17 56.08861 74.68859 34848 ft 503 kts 112°
2026-05-05 17:18 56.06652 74.80814 34855 ft 503 kts 113°
2026-05-05 17:18 56.04444 74.92681 34856 ft 503 kts 113°
2026-05-05 17:19 56.02224 75.04541 34860 ft 503 kts 113°
2026-05-05 17:19 56.00004 75.16326 34874 ft 503 kts 113°
2026-05-05 17:20 55.97759 75.28168 34875 ft 504 kts 113°
2026-05-05 17:20 55.95503 75.39998 34873 ft 504 kts 113°
2026-05-05 17:21 55.93236 75.51816 34877 ft 504 kts 113°
2026-05-05 17:22 55.89810 75.69533 34888 ft 504 kts 113°
2026-05-05 17:22 55.87509 75.81345 34892 ft 504 kts 113°
2026-05-05 17:23 55.85198 75.93131 34893 ft 504 kts 113°
2026-05-05 17:23 55.82876 76.04907 34900 ft 505 kts 113°
2026-05-05 17:24 55.80540 76.16677 34898 ft 505 kts 113°
2026-05-05 17:24 55.78188 76.28460 34901 ft 505 kts 113°
2026-05-05 17:25 55.75827 76.40219 34903 ft 506 kts 113°
2026-05-05 17:25 55.73453 76.51970 34904 ft 506 kts 114°
2026-05-05 17:26 55.71067 76.63713 34901 ft 506 kts 114°
2026-05-05 17:26 55.68680 76.75389 34902 ft 506 kts 114°
2026-05-05 17:27 55.66270 76.87112 34901 ft 507 kts 114°
2026-05-05 17:27 55.63847 76.98824 34904 ft 507 kts 114°
2026-05-05 17:28 55.61410 77.10542 34901 ft 507 kts 114°
2026-05-05 17:28 55.58968 77.22213 34896 ft 507 kts 114°
2026-05-05 17:29 55.56924 77.31930 34904 ft 507 kts 114°
2026-05-05 17:29 55.54455 77.43605 34907 ft 507 kts 114°
2026-05-05 17:30 55.51975 77.55270 34906 ft 507 kts 114°
2026-05-05 17:30 55.49484 77.66918 34906 ft 507 kts 114°
2026-05-05 17:31 55.46983 77.78549 34901 ft 508 kts 114°
2026-05-05 17:31 55.44467 77.90180 34900 ft 508 kts 114°
2026-05-05 17:32 55.41944 78.01786 34900 ft 508 kts 114°
2026-05-05 17:32 55.39411 78.13379 34912 ft 508 kts 114°
2026-05-05 17:33 55.36867 78.24956 34911 ft 508 kts 114°
2026-05-05 17:33 55.34991 78.36948 34917 ft 511 kts 99°
2026-05-05 17:34 55.34088 78.49342 34914 ft 512 kts 98°
2026-05-05 17:34 55.33153 78.61730 34916 ft 512 kts 99°
2026-05-05 17:35 55.32159 78.74101 34921 ft 512 kts 99°
2026-05-05 17:35 55.31136 78.86397 34918 ft 512 kts 99°
2026-05-05 17:36 55.30095 78.98748 34924 ft 512 kts 99°
2026-05-05 17:36 55.29045 79.11092 34929 ft 512 kts 99°
2026-05-05 17:37 55.27984 79.23432 34927 ft 512 kts 100°
2026-05-05 17:37 55.26908 79.35790 34928 ft 512 kts 100°
2026-05-05 17:38 55.25821 79.48129 34931 ft 512 kts 100°
2026-05-05 17:38 55.24721 79.60462 34934 ft 512 kts 100°
2026-05-05 17:38 55.24166 79.66631 34788 ft 515 kts 100°
2026-05-05 17:39 55.23601 79.72866 34112 ft 519 kts 100°
2026-05-05 17:39 55.23026 79.79179 33367 ft 518 kts 100°
2026-05-05 17:39 55.22463 79.85320 32599 ft 518 kts 100°
2026-05-05 17:39 55.21882 79.91622 31830 ft 517 kts 100°
2026-05-05 17:40 55.21313 79.97763 31058 ft 518 kts 100°
2026-05-05 17:40 55.20733 80.03984 30262 ft 518 kts 100°
2026-05-05 17:40 55.20149 80.10219 29321 ft 519 kts 101°
2026-05-05 17:40 55.19561 80.16456 28345 ft 520 kts 101°
2026-05-05 17:41 55.18969 80.22695 27384 ft 520 kts 101°
2026-05-05 17:41 55.18374 80.28936 26373 ft 520 kts 101°
2026-05-05 17:41 55.17776 80.35181 25463 ft 520 kts 101°
2026-05-05 17:41 55.17179 80.41378 24759 ft 514 kts 101°
2026-05-05 17:42 55.16586 80.47502 24023 ft 509 kts 101°
2026-05-05 17:42 55.15994 80.53581 23237 ft 505 kts 101°
2026-05-05 17:42 55.15403 80.59611 22415 ft 500 kts 101°
2026-05-05 17:42 55.14818 80.65566 21664 ft 494 kts 100°
2026-05-05 17:43 55.14236 80.71449 20920 ft 489 kts 100°
2026-05-05 17:43 55.13659 80.77270 20206 ft 483 kts 100°
2026-05-05 17:43 55.13086 80.83021 19498 ft 478 kts 100°
2026-05-05 17:43 55.12513 80.88723 18775 ft 474 kts 100°
2026-05-05 17:44 55.12076 80.94413 18009 ft 471 kts 92°
2026-05-05 17:44 55.12130 81.00074 17377 ft 462 kts 83°
2026-05-05 17:44 55.12659 81.05540 16770 ft 453 kts 75°
2026-05-05 17:44 55.13355 81.10877 16080 ft 448 kts 76°
2026-05-05 17:45 55.14019 81.16172 15395 ft 444 kts 76°
2026-05-05 17:45 55.14658 81.21438 14706 ft 441 kts 76°
2026-05-05 17:45 55.15280 81.26675 14017 ft 439 kts 77°
2026-05-05 17:45 55.15893 81.31897 13265 ft 437 kts 77°
2026-05-05 17:46 55.16497 81.37082 12550 ft 433 kts 77°
2026-05-05 17:46 55.17093 81.42226 11859 ft 429 kts 77°
2026-05-05 17:46 55.17682 81.47320 11223 ft 425 kts 77°
2026-05-05 17:46 55.18254 81.52281 11062 ft 408 kts 77°
2026-05-05 17:47 55.18802 81.57053 10872 ft 393 kts 77°
2026-05-05 17:47 55.19331 81.61668 10694 ft 380 kts 77°
2026-05-05 17:47 55.19835 81.66073 10541 ft 368 kts 77°
2026-05-05 17:47 55.20328 81.70394 10386 ft 357 kts 77°
2026-05-05 17:48 55.20806 81.74592 10239 ft 347 kts 77°
2026-05-05 17:48 55.21157 81.78699 10112 ft 337 kts 91°
2026-05-05 17:48 55.20616 81.82554 10034 ft 320 kts 121°
2026-05-05 17:48 55.19473 81.85790 9973 ft 307 kts 126°
2026-05-05 17:49 55.18346 81.88957 9525 ft 311 kts 126°
2026-05-05 17:49 55.17183 81.92269 8742 ft 326 kts 125°
2026-05-05 17:49 55.15998 81.95671 7987 ft 329 kts 125°
2026-05-05 17:49 55.14809 81.99099 7244 ft 330 kts 124°
2026-05-05 17:50 55.13620 82.02533 6520 ft 330 kts 124°
2026-05-05 17:50 55.13221 82.03687 6271 ft 329 kts 124°
2026-05-05 17:50 55.12641 82.05360 5908 ft 329 kts 124°
2026-05-05 17:50 55.11460 82.08765 5309 ft 322 kts 123°
2026-05-05 17:51 55.10330 82.12026 5021 ft 307 kts 123°
2026-05-05 17:51 55.09246 82.15152 4708 ft 295 kts 123°
2026-05-05 17:51 55.08203 82.18149 4434 ft 283 kts 123°
2026-05-05 17:51 55.07205 82.21016 4198 ft 271 kts 123°
2026-05-05 17:52 55.06249 82.23756 4004 ft 258 kts 122°
2026-05-05 17:52 55.05341 82.26358 3923 ft 243 kts 122°
2026-05-05 17:52 55.04490 82.28796 3821 ft 230 kts 122°
2026-05-05 17:52 55.03674 82.31130 3615 ft 221 kts 122°
2026-05-05 17:53 55.02890 82.33370 3450 ft 212 kts 122°
2026-05-05 17:53 55.02135 82.35522 3265 ft 204 kts 122°
2026-05-05 17:53 55.01408 82.37594 3068 ft 196 kts 122°
2026-05-05 17:53 55.00710 82.39572 2820 ft 186 kts 122°
2026-05-05 17:54 55.00052 82.41435 2590 ft 175 kts 122°
2026-05-05 17:54 54.99547 82.43234 2414 ft 157 kts 99°
2026-05-05 17:54 54.99691 82.45012 2392 ft 151 kts 73°
2026-05-05 17:54 54.99783 82.46804 2196 ft 148 kts 92°
2026-05-05 17:55 54.99802 82.48595 1999 ft 146 kts 85°
2026-05-05 17:55 54.99928 82.50351 1805 ft 146 kts 82°
2026-05-05 17:55 55.00079 82.52089 1602 ft 145 kts 82°
2026-05-05 17:55 55.00233 82.53819 1413 ft 144 kts 82°
2026-05-05 17:56 55.00386 82.55534 1206 ft 143 kts 82°
2026-05-05 17:56 55.00539 82.57240 1013 ft 142 kts 82°
2026-05-05 17:56 55.00691 82.58938 802 ft 142 kts 83°
2026-05-05 17:56 55.00846 82.60641 598 ft 142 kts 82°
2026-05-05 17:57 55.01001 82.62333 414 ft 141 kts 81°
2026-05-05 17:57 55.01140 82.63869 374 ft 103 kts 82°
2026-05-05 17:57 55.01226 82.64929 371 ft 82 kts 83°
2026-05-05 17:57 55.01287 82.65677 371 ft 48 kts 82°
2026-05-05 17:58 55.01336 82.66223 371 ft 44 kts 80°
2026-05-05 17:58 55.01344 82.66576 373 ft 17 kts 137°
2026-05-05 17:58 55.01232 82.66631 372 ft 17 kts 168°
2026-05-05 17:58 55.01136 82.66657 372 ft 5 kts 162°
2026-05-05 17:59 55.01102 82.66742 372 ft 14 kts 95°
2026-05-05 17:59 55.01068 82.66917 372 ft 12 kts 149°
2026-05-05 17:59 55.01029 82.66933 372 ft 4 kts 171°
2026-05-05 17:59 55.01008 82.66940 372 ft 0 kts 169°